Terminal Aerodrome Forecast
Issued by NWS

Home | Current Version | Previous Version | Graphics & Text | Print | Product List | Glossary On
Versions: 1 2 3 4 5 6 7 8 9 10 11 12 13 14 15 16 17 18 19 20 21 22 23 24 25 26 27 28 29 30 31 32 33 34 35 36 37 38 39 40 41 42 43 44 45 46 47 48 49 50
000
FTUS43 KLOT 212100 AAC
TAFGYY
TAF AMD
KGYY 212152Z 2122/2218 01012KT 1SM +TSRA SCT010 BKN015CB OVC030
     FM212300 15005KT P6SM SCT040 BKN100
     FM220600 19005KT P6SM VCSH SCT010 BKN100 PROB30 2207/2211 4SM
      -TSRA BR BKN050CB
     FM221200 22004KT 4SM BR SCT007 BKN040=

USA.gov is the U.S. government's official web portal to all federal, state and local government web resources and services.